Regional Weather Roundup
Issued by NWS

Home | Current Version | Previous Version | Graphics & Text | Print | Product List | Glossary On
Versions: 1 2 3 4 5 6 7 8 9 10 11 12 13 14 15 16 17 18 19 20 21 22 23 24 25 26 27 28 29 30 31 32 33 34 35 36 37 38 39 40 41 42 43 44 45 46 47 48 49 50
000
ASUS45 KTFX 080210
RWRMT
MONTANA REGIONAL WEATHER ROUNDUP
NATIONAL WEATHER SERVICE GREAT FALLS MT
800 PM MDT TUE JUL 07 2015

NOTE: "FAIR" INDICATES FEW OR NO CLOUDS BELOW 12000 FEET WITH NO
SIGNIFICANT WEATHER AND/OR OBSTRUCTIONS TO VISIBILITY.

MTZ001>007-043-080300-
WEST OF THE DIVIDE

CITY           SKY/WX    TMP DP  RH WIND       PRES   REMARKS
KALISPELL      PTCLDY    74  51  44 CALM      30.00S
MISSOULA       MOSUNNY   74  49  41 S3        30.00R
BUTTE          PTSUNNY   65  43  44 N7        30.13R
MULLAN PASS    SUNNY     64  46  52 CALM      30.12F
DEER LODGE       N/A     70  50  49 CALM      30.12F
EUREKA           N/A     73  52  46 SE9       29.98S
HAMILTON         N/A     72  52  49 N3        30.00F
LIBBY            N/A     79  52  38 NW3       29.96S
PLAINS           N/A     80  47  31 N3        29.98S
$$

MTZ008-052>055-080300-
SOUTHWEST MONTANA

CITY           SKY/WX    TMP DP  RH WIND       PRES   REMARKS
BOZEMAN        PTSUNNY   69  48  47 S12       30.06S
DILLON         MOSUNNY   68  49  50 NE10      30.06R
W YELLOWSTONE  PTSUNNY   63  45  51 N9G20     30.13R
THREE FORKS      N/A     70  59  68 N7        30.06R
TWIN BRIDGES     N/A     71  47  42 N22       30.04R
$$

MTZ009-010-012-014-046-048-049-054-080300-
EAST SLOPES AND CENTRAL MONTANA

CITY           SKY/WX    TMP DP  RH WIND       PRES   REMARKS
CUT BANK       MOSUNNY   68  44  42 CALM      30.09F
GREAT FALLS    MOSUNNY   66  48  52 NE3       30.09S
MALMSTROM AFB  MOSUNNY   65  50  57 E5        30.10R
HELENA         PTSUNNY   69  46  43 N13       30.07R
CONRAD           N/A     70  57  63 CALM      30.12S
$$

MTZ011-013-016-021-045-047-050-051-080300-
NORTH CENTRAL MONTANA

CITY           SKY/WX    TMP DP  RH WIND       PRES   REMARKS
HAVRE          PTSUNNY   72  48  42 N12       30.03S
LEWISTOWN      LGT RAIN  58  51  78 S6        30.13S
CHINOOK          N/A     72  50  46 CALM      30.02S
FORT BENTON      N/A     72  50  46 S3        30.08S
$$

MTZ017>020-022>027-061-062-080300-
NORTHEAST MONTANA

CITY           SKY/WX    TMP DP  RH WIND       PRES   REMARKS
GLASGOW        MOCLDY    75  44  33 NW10      29.96R
JORDAN           N/A     73  46  38 N12       29.99R
SIDNEY         CLEAR     73  54  49 CALM      29.94S
WOLF POINT     MOCLDY    75  51  43 W7        29.95R
MALTA            N/A     72  49  44 W1        29.97S
PLENTYWOOD       N/A     70  55  60 NE5       29.94F
POPLAR           N/A     72  52  49 W5        29.94S
SCOBEY           N/A     72  46  39 N8        29.96S
$$

MTZ028>42-056>058-080300-
SOUTHCENTRAL AND SOUTHEAST MONTANA

CITY           SKY/WX    TMP DP  RH WIND       PRES   REMARKS
BAKER          CLEAR     70  56  61 NE14      29.97S
BILLINGS       MOCLDY    72  40  31 N17G28    30.03R
LIVINGSTON     PTSUNNY   64  61  90 NE8       30.09R
MILES CITY     CLEAR     77  44  30 NE12      29.95S
EKALAKA          N/A     70  52  52 N7        29.98S
FORSYTH          N/A     77  43  29 NE10      29.97R
LAUREL           N/A     73  41  31 N16       30.02R
ROUNDUP          N/A     67  42  40 N16       29.98R
$$

REGIONAL REPORTS...DAKOTAS

CITY           SKY/WX    TMP DP  RH WIND       PRES   REMARKS
WILLISTON      CLEAR     74  51  44 NE3       29.93F
MINOT          TSTM      58  57  97 N6        29.98R VSB 3/4
DICKINSON      CLOUDY    63  59  87 NE7       29.96S
BEACH          FAIR      63  63 100 E7        29.98S
CROSBY         FAIR      66  61  82 S8        29.93F
BISMARCK       CLOUDY    69  56  62 SE8       29.98F
GRAND FORKS    PTCLDY    65  49  56 S7        30.00F
FARGO          CLEAR     66  46  48 S7        30.05S
BUFFALO SD       N/A     69  59  70 NE8       29.89F
RAPID CITY     PTCLDY    67  57  70 SE8       29.99F
$$

REGIONAL REPORTS...WYOMING/IDAHO/WASHINGTON

CITY           SKY/WX    TMP DP  RH WIND       PRES   REMARKS
GILLETTE       MOCLDY    63  56  78 CALM      30.04S
SHERIDAN       PTCLDY    68  56  65 CALM      30.02R
BUFFALO WY     MOCLDY    64  51  62 S6        30.09S
CODY           CLOUDY    66  46  48 W6        30.09R
YELLOWSTONE LA   N/A     60  41  49 NW13G20   30.21R
IDAHO FALLS    PTSUNNY   69  51  52 NW16G24   29.99R
SALMON         CLOUDY    73  46  38 CALM      29.98F
BOISE          MOSUNNY   91  43  18 W12       29.81S
SPOKANE        PTSUNNY   87  46  24 NE12      29.87F
$$

REGIONAL REPORTS...ALBERTA

CITY           SKY/WX    TMP DP  RH WIND       PRES   REMARKS
EDMONTON       SUNNY     68  41  37 SE5       29.99F
CALGARY        MOSUNNY   64  50  59 S6        30.08F
MEDICINE HAT   MOSUNNY   73  43  33 N9        30.02R
WATERTON GATE    N/A     68  50  52 E6          N/A
CARDSTON         N/A     68  50  52 E2          N/A
MILK RIVER       N/A     68  52  56 N6          N/A
ONEFOUR          N/A     61  52  72 W9          N/A
$$

REGIONAL REPORTS...SASKATCHEWAN

CITY           SKY/WX    TMP DP  RH WIND       PRES   REMARKS
SWIFT CURRENT  SUNNY     64  48  55 N12G18    30.02R
REGINA         CLEAR     63  54  72 N21       29.96R SMOKE
SASKATOON      MOSUNNY   61  41  48 N9        30.03S
CYPRESS HILLS    N/A     61  46  59 SW3         N/A
VAL MARIE        N/A     70  45  40 N10         N/A
ASSINIBOIA       N/A     64  39  39 E1          N/A
$$


USA.gov is the U.S. government's official web portal to all federal, state and local government web resources and services.